Grosse Ile, MI

7:15 PM EST on November 18, 2017 (GMT -0500)
Grosse Ile Municipal

Weather History for KONZ - July, 2013

Change the Weather History Date:

Thursday, July 11, 2013

  Actual Average (KDTW) Record (KDTW)
Temperature  
Mean Temperature 72 °F -  
Max Temperature 78 °F 82 °F 101 °F (1936)
Min Temperature 66 °F 61 °F 47 °F (1978)
Cooling Degree Days 7    
Growing Degree Days 22 (Base 50)    
Moisture  
Dew Point 56 °F    
Average Humidity 60    
Maximum Humidity 88    
Minimum Humidity 39    
Precipitation  
Precipitation 0.00 in - - ()
Sea Level Pressure  
Sea Level Pressure 30.02 in    
Wind  
Wind Speed 6 mph (NNE)    
Max Wind Speed 12 mph    
Max Gust Speed 17 mph    
Visibility 10 miles    
Events      
Averages and records for this station are not official NWS values.
T = Trace of Precipitation, MM = Missing Value Source: NWS Daily Summary

Daily Weather History Graph

Daily Weather History Graph

Search for Another Location

Airport or City:

Trip Planner

Search our weather history database for the weather conditions in past years. The results will help you decide how hot, cold, wet, or windy it might be!

Date:

Astronomy

Jul. 11, 2013 Rise Set
Actual Time 6:07 AM EDT 9:08 PM EDT
Civil Twilight 5:33 AM EDT 9:42 PM EDT
Nautical Twilight 4:50 AM EDT 10:25 PM EDT
Astronomical Twilight 3:59 AM EDT 11:15 PM EDT
Moon 9:28 AM EDT (7/11) 10:44 PM EDT (7/11)
Length of Visible Light 16h 09m
Length of Day
15h 01m
Waxing Crescent, 10% of the Moon is Illuminated
Jul 11
Waxing Crescent
Jul 15
First Quarter
Jul 22
Full
Jul 29
Last Quarter
Aug 6
New

Hourly Weather History & Observations

Time (EDT) Temp. Dew Point Humidity Pressure Visibility Wind Dir Wind Speed Gust Speed Precip Events Conditions
12:14 AM 73.4 °F 57.2 °F 57% 29.94 in 10.0 mi North 6.9 mph - N/A   Mostly Cloudy
12:34 AM 69.8 °F 59.0 °F 68% 29.94 in 10.0 mi East 3.5 mph - N/A   Scattered Clouds
12:54 AM 69.8 °F 64.4 °F 83% 29.94 in 10.0 mi NE 3.5 mph - N/A   Clear
1:14 AM 69.8 °F 62.6 °F 78% 29.95 in 10.0 mi North 4.6 mph - N/A   Clear
1:34 AM 69.8 °F 62.6 °F 78% 29.95 in 10.0 mi Calm Calm - N/A   Clear
1:54 AM 68.0 °F 62.6 °F 83% 29.94 in 10.0 mi Calm Calm - N/A   Scattered Clouds
2:14 AM 66.2 °F 62.6 °F 88% 29.94 in 10.0 mi North 3.5 mph - N/A   Scattered Clouds
2:34 AM 69.8 °F 57.2 °F 64% 29.94 in 10.0 mi North 5.8 mph - N/A   Scattered Clouds
2:54 AM 69.8 °F 57.2 °F 64% 29.95 in 10.0 mi North 5.8 mph - N/A   Mostly Cloudy
3:14 AM 69.8 °F 57.2 °F 64% 29.96 in 10.0 mi Calm Calm - N/A   Overcast
3:35 AM 68.0 °F 57.2 °F 68% 29.97 in 10.0 mi NNW 4.6 mph - N/A   Overcast
3:54 AM 66.2 °F 57.2 °F 73% 29.97 in 10.0 mi Calm Calm - N/A   Mostly Cloudy
4:14 AM 66.2 °F 57.2 °F 73% 29.98 in 10.0 mi NW 4.6 mph - N/A   Overcast
4:34 AM 68.0 °F 57.2 °F 68% 29.97 in 10.0 mi North 4.6 mph - N/A   Overcast
4:54 AM 66.2 °F 57.2 °F 73% 29.97 in 10.0 mi NNW 3.5 mph - N/A   Overcast
5:14 AM 66.2 °F 57.2 °F 73% 29.98 in 10.0 mi North 4.6 mph - N/A   Overcast
5:34 AM 66.2 °F 57.2 °F 73% 29.98 in 10.0 mi North 3.5 mph - N/A   Overcast
5:54 AM 66.2 °F 57.2 °F 73% 29.99 in 10.0 mi North 4.6 mph - N/A   Overcast
6:14 AM 66.2 °F 57.2 °F 73% 30.00 in 10.0 mi NNW 4.6 mph - N/A   Overcast
6:34 AM 66.2 °F 57.2 °F 73% 30.01 in 10.0 mi NNW 5.8 mph - N/A   Overcast
6:54 AM 66.2 °F 57.2 °F 73% 30.01 in 10.0 mi NNW 5.8 mph - N/A   Overcast
7:14 AM 66.2 °F 57.2 °F 73% 30.02 in 10.0 mi NNW 4.6 mph - N/A   Overcast
7:34 AM 66.2 °F 57.2 °F 73% 30.03 in 10.0 mi North 5.8 mph - N/A   Overcast
7:54 AM 66.2 °F 55.4 °F 68% 30.03 in 10.0 mi North 4.6 mph - N/A   Overcast
8:14 AM 66.2 °F 55.4 °F 68% 30.04 in 10.0 mi North 3.5 mph - N/A   Mostly Cloudy
8:34 AM 69.8 °F 55.4 °F 60% 30.04 in 10.0 mi North 8.1 mph - N/A   Scattered Clouds
8:54 AM 69.8 °F 53.6 °F 56% 30.04 in 10.0 mi North 6.9 mph - N/A   Clear
9:14 AM 71.6 °F 55.4 °F 57% 30.04 in 10.0 mi North 5.8 mph - N/A   Clear
9:34 AM 71.6 °F 53.6 °F 53% 30.04 in 10.0 mi NNE 9.2 mph - N/A   Clear
9:55 AM 71.6 °F 51.8 °F 50% 30.04 in 10.0 mi North 10.4 mph 17.3 mph N/A   Clear
10:14 AM 73.4 °F 53.6 °F 50% 30.05 in 10.0 mi North 8.1 mph - N/A   Clear
10:34 AM 73.4 °F 53.6 °F 50% 30.04 in 10.0 mi NNE 10.4 mph 16.1 mph N/A   Clear
10:54 AM 73.4 °F 51.8 °F 47% 30.04 in 10.0 mi North 8.1 mph - N/A   Clear
11:14 AM 73.4 °F 53.6 °F 50% 30.04 in 10.0 mi NNE 11.5 mph 16.1 mph N/A   Mostly Cloudy
11:34 AM 73.4 °F 53.6 °F 50% 30.05 in 10.0 mi NE 10.4 mph 16.1 mph N/A   Mostly Cloudy
11:54 AM 73.4 °F 53.6 °F 50% 30.05 in 10.0 mi NNE 4.6 mph - N/A   Overcast
12:14 PM 73.4 °F 53.6 °F 50% 30.05 in 10.0 mi North 5.8 mph - N/A   Overcast
12:34 PM 75.2 °F 51.8 °F 44% 30.05 in 10.0 mi North 6.9 mph - N/A   Scattered Clouds
12:54 PM 75.2 °F 53.6 °F 47% 30.05 in 10.0 mi NNE 9.2 mph - N/A   Mostly Cloudy
1:14 PM 75.2 °F 53.6 °F 47% 30.04 in 10.0 mi North 5.8 mph - N/A   Mostly Cloudy
1:34 PM 73.4 °F 53.6 °F 50% 30.04 in 10.0 mi NNE 5.8 mph - N/A   Mostly Cloudy
1:54 PM 77.0 °F 53.6 °F 44% 30.04 in 10.0 mi North 10.4 mph - N/A   Scattered Clouds
2:14 PM 75.2 °F 51.8 °F 44% 30.04 in 10.0 mi NNE 9.2 mph - N/A   Scattered Clouds
2:34 PM 77.0 °F 55.4 °F 47% 30.03 in 10.0 mi NE 8.1 mph - N/A   Scattered Clouds
2:54 PM 77.0 °F 53.6 °F 44% 30.03 in 10.0 mi NE 10.4 mph - N/A   Scattered Clouds
3:14 PM 77.0 °F 53.6 °F 44% 30.03 in 10.0 mi NE 6.9 mph - N/A   Scattered Clouds
3:34 PM 78.8 °F 53.6 °F 42% 30.03 in 10.0 mi North 5.8 mph - N/A   Clear
3:54 PM 75.2 °F 51.8 °F 44% 30.03 in 10.0 mi NNE 6.9 mph - N/A   Mostly Cloudy
4:14 PM 78.8 °F 55.4 °F 44% 30.03 in 10.0 mi NNE 9.2 mph - N/A   Scattered Clouds
4:34 PM 77.0 °F 55.4 °F 47% 30.03 in 10.0 mi NE 8.1 mph - N/A   Scattered Clouds
4:54 PM 75.2 °F 53.6 °F 47% 30.03 in 10.0 mi NNE 8.1 mph - N/A   Mostly Cloudy
5:15 PM 78.8 °F 53.6 °F 42% 30.02 in 10.0 mi NNE 10.4 mph - N/A   Scattered Clouds
5:34 PM 77.0 °F 53.6 °F 44% 30.02 in 10.0 mi North 6.9 mph - N/A   Clear
5:54 PM 78.8 °F 51.8 °F 39% 30.02 in 10.0 mi NNE 6.9 mph - N/A   Clear
6:14 PM 77.0 °F 51.8 °F 41% 30.02 in 10.0 mi NNE 8.1 mph - N/A   Mostly Cloudy
6:34 PM 75.2 °F 55.4 °F 50% 30.02 in 10.0 mi NE 8.1 mph - N/A   Overcast
6:54 PM 73.4 °F 57.2 °F 57% 30.03 in 10.0 mi ENE 9.2 mph - N/A   Mostly Cloudy
7:14 PM 75.2 °F 59.0 °F 57% 30.03 in 10.0 mi NE 10.4 mph - N/A   Mostly Cloudy
7:34 PM 73.4 °F 60.8 °F 65% 30.03 in 10.0 mi ENE 10.4 mph - N/A   Scattered Clouds
7:54 PM 73.4 °F 60.8 °F 65% 30.03 in 10.0 mi NE 10.4 mph - N/A   Scattered Clouds
8:14 PM 71.6 °F 59.0 °F 64% 30.03 in 10.0 mi ENE 10.4 mph - N/A   Clear
8:34 PM 71.6 °F 57.2 °F 60% 30.03 in 10.0 mi ENE 9.2 mph - N/A   Clear
8:54 PM 69.8 °F 57.2 °F 64% 30.03 in 10.0 mi ENE 9.2 mph - N/A   Clear
9:14 PM 69.8 °F 57.2 °F 64% 30.03 in 10.0 mi ENE 5.8 mph - N/A   Clear
9:34 PM 69.8 °F 59.0 °F 68% 30.04 in 10.0 mi NE 8.1 mph - N/A   Clear
9:54 PM 68.0 °F 57.2 °F 68% 30.04 in 10.0 mi ENE 6.9 mph - N/A   Clear
10:14 PM 68.0 °F 59.0 °F 73% 30.05 in 10.0 mi NE 6.9 mph - N/A   Clear
10:34 PM 68.0 °F 57.2 °F 68% 30.05 in 10.0 mi ENE 6.9 mph - N/A   Clear
10:54 PM 66.2 °F 57.2 °F 73% 30.06 in 10.0 mi NE 5.8 mph - N/A   Clear
11:14 PM 66.2 °F 57.2 °F 73% 30.06 in 10.0 mi NE 8.1 mph - N/A   Clear
11:34 PM 66.2 °F 59.0 °F 78% 30.06 in 10.0 mi NE 6.9 mph - N/A   Clear
11:54 PM 66.2 °F 59.0 °F 78% 30.07 in 10.0 mi NE 9.2 mph - N/A   Clear